GEFSMA_con_prob3kmehi_258.txt.gz
EHI
0 0 0 0 0 0 0 0 0 0 0 0 0 0 0 0 0 1 1 1 1 1 0 0 0 1 1 1 2 4 4 3 3 2 1 0 0 0 0 0 0 0 0
0 0 0 0 0 0 0 0 0 0 0 0 0 0 0 0 0 0 0 1 1 2 1 1 0 0 0 0 1 2 3 3 3 2 1 0 0 0 0 0 0 0 0
0 0 0 0 0 0 0 0 0 0 0 0 0 0 0 0 0 0 0 0 1 2 2 1 1 1 1 0 0 0 1 2 2 1 0 0 0 0 0 0 0 0 0
1 1 1 1 1 0 0 0 0 0 1 1 0 0 0 0 0 1 1 1 1 2 3 2 2 2 1 0 0 0 1 2 1 0 0 0 0 0 0 0 0 0 0
2 2 2 2 2 1 0 1 1 1 1 1 1 0 0 0 1 1 1 2 2 3 3 3 3 3 1 0 0 1 2 3 2 1 0 0 0 0 0 0 0 0 0
2 2 3 3 3 2 1 2 3 3 2 2 2 0 0 0 1 1 1 1 2 4 4 3 3 3 2 1 1 1 1 2 3 2 1 0 0 0 0 0 0 0 0
1 2 2 3 4 3 2 3 5 4 3 4 4 3 1 2 1 1 1 1 2 3 3 3 3 4 4 3 1 0 0 2 3 4 3 1 0 0 0 0 0 0 0
1 2 2 2 3 4 4 6 7 6 5 6 8 7 5 4 3 3 3 4 3 3 3 2 3 4 5 5 3 1 1 2 3 4 3 1 0 0 0 0 1 1 0
2 3 2 2 2 3 5 7 9 9 8 8 9 10 8 6 5 5 5 5 5 6 5 3 3 4 6 6 5 3 1 2 2 2 2 1 0 0 0 0 1 1 1
3 3 3 3 3 3 5 7 8 9 10 9 9 9 8 8 8 7 5 4 4 5 5 4 4 5 6 7 7 4 2 2 1 1 1 1 0 0 0 0 0 0 0
4 4 5 5 4 3 5 7 9 9 10 9 8 8 8 8 8 7 5 3 2 2 2 2 4 5 5 6 5 3 2 1 0 0 1 1 0 0 0 0 0 0 0
4 5 6 6 6 5 7 9 10 9 8 8 9 8 7 7 8 8 7 3 0 0 0 1 3 5 6 5 3 1 1 0 0 0 1 1 0 0 0 0 1 1 1
3 5 6 6 6 7 8 9 8 7 7 8 9 9 8 7 9 10 9 5 2 1 1 1 3 5 6 6 3 0 0 0 0 0 0 0 0 0 0 0 1 2 2
3 4 6 7 7 8 9 9 8 7 7 8 9 10 10 9 10 11 11 9 6 5 4 4 4 5 6 5 2 0 0 0 0 0 0 0 0 0 0 0 1 1 1
6 6 6 7 7 8 9 10 10 9 8 8 8 10 11 11 11 12 13 14 13 10 8 7 6 6 5 4 2 1 0 1 0 0 0 0 0 0 0 0 0 0 0
11 9 7 6 7 7 9 10 10 10 10 10 10 10 11 12 11 12 15 18 18 15 11 9 8 7 5 3 2 1 1 1 1 0 0 0 0 0 0 0 0 0 0
13 10 8 7 8 8 9 10 10 10 12 12 12 11 11 12 12 13 16 20 20 18 15 11 9 10 9 6 2 0 1 2 1 0 0 0 0 0 0 0 0 0 0
11 10 9 9 10 12 13 11 9 9 11 13 13 12 12 12 13 15 18 19 20 20 18 15 12 12 11 7 3 0 0 1 0 0 0 0 0 0 0 0 0 0 0
11 11 12 12 13 14 16 13 10 9 11 12 13 13 13 14 16 18 19 19 19 19 19 17 14 11 9 5 2 0 0 0 0 0 0 0 0 0 0 0 0 0 0
16 17 17 15 14 15 15 13 11 11 12 12 13 14 14 15 18 19 18 19 19 19 19 17 12 9 6 2 0 0 0 0 0 0 0 0 0 0 0 0 0 0 0
22 25 23 19 16 15 12 10 10 13 15 14 16 17 17 18 18 15 13 14 16 17 17 15 11 8 6 3 1 0 0 0 0 0 0 0 0 0 0 0 0 0 0
27 29 28 25 21 14 7 5 8 13 17 19 20 21 21 20 17 12 8 7 7 9 12 12 11 11 9 6 3 1 0 0 0 0 0 0 0 0 0 0 0 0 0
31 31 30 30 26 17 7 3 5 11 18 22 23 23 22 21 18 14 10 7 6 6 8 10 13 14 12 10 7 4 1 1 0 0 0 0 0 0 0 0 0 0 0
33 32 31 30 27 20 10 3 3 10 17 22 22 21 22 21 18 16 13 12 12 10 7 7 10 11 9 9 9 6 3 1 0 0 0 0 0 0 0 0 0 0 0
33 32 30 27 24 18 11 4 4 12 18 20 20 19 19 18 15 13 13 13 13 12 8 5 4 4 3 4 6 6 4 2 0 0 0 0 0 0 0 0 0 0 0
32 30 28 25 20 16 11 4 5 14 19 19 19 17 17 16 12 10 11 11 11 10 9 5 2 0 0 1 2 4 3 2 1 0 0 0 0 0 0 0 0 0 0

GEFSMA_con_prob3kmehi_264.txt.gz
EHI
3 3 4 5 4 3 2 1 2 3 3 1 1 1 1 1 1 3 7 14 18 17 14 11 8 7 5 4 4 3 3 2 3 4 4 3 1 0 0 0 1 2 3
4 4 4 3 2 2 2 2 2 4 4 2 2 2 1 0 1 3 7 13 18 17 16 15 13 9 6 6 5 5 5 4 3 4 5 4 2 1 0 0 1 2 3
6 5 2 1 1 1 3 3 2 4 5 3 4 5 4 2 2 3 7 12 16 16 17 19 19 14 10 9 8 7 7 5 4 5 6 5 3 2 1 0 0 1 2
6 4 2 1 2 3 4 4 3 4 3 4 7 8 7 7 7 6 7 11 14 15 17 20 21 18 15 12 10 9 8 7 7 6 6 5 4 3 1 0 0 0 1
4 4 4 5 6 6 6 5 4 4 4 6 8 8 8 9 9 8 8 10 15 17 17 18 20 18 17 16 14 12 10 9 9 9 8 7 5 3 1 0 0 0 0
8 8 7 8 9 9 7 5 5 6 7 7 6 6 7 7 9 10 9 9 14 17 16 18 19 16 15 16 17 16 14 12 11 10 10 9 7 5 3 1 0 0 0
15 14 10 9 9 8 5 3 5 7 8 8 6 6 7 6 8 10 8 7 10 13 14 18 21 18 14 13 13 13 12 11 10 10 10 10 9 7 4 1 0 0 0
18 16 13 10 9 8 6 5 7 8 7 6 7 6 6 6 6 7 6 7 10 11 12 17 22 23 19 14 10 8 8 7 7 7 8 8 8 6 3 1 0 0 0
16 15 13 11 10 9 8 10 12 11 8 6 6 7 7 7 7 6 6 9 12 13 13 15 20 22 22 20 14 9 6 4 4 5 5 5 6 4 3 2 0 0 0
19 17 14 12 11 9 9 12 14 13 11 8 7 8 10 11 12 10 9 9 11 13 14 15 17 19 21 21 18 12 7 3 3 4 3 4 4 4 3 2 0 0 0
26 22 17 15 13 10 8 10 12 13 11 10 9 10 13 15 15 13 9 7 7 8 11 13 15 17 18 18 16 12 8 4 2 2 3 3 3 4 4 2 1 0 0
31 26 21 17 15 12 10 9 10 11 12 11 11 12 15 17 15 12 8 6 6 8 9 11 12 13 14 14 12 10 7 4 1 1 1 2 2 3 3 2 1 0 0
31 28 24 21 18 14 12 12 12 12 13 14 14 15 17 18 17 14 11 8 8 9 9 9 11 12 12 12 11 8 5 3 1 0 0 1 1 1 1 1 1 0 0
28 29 27 23 20 14 12 14 13 13 16 17 16 17 17 18 19 18 15 14 12 10 9 9 10 12 13 12 11 7 5 3 1 0 0 0 0 0 0 0 0 0 0
25 28 27 23 20 15 14 15 13 13 17 18 18 19 19 18 18 19 18 17 15 13 12 12 11 11 11 10 9 7 6 3 1 0 0 0 0 0 0 0 0 0 0
26 28 27 24 21 18 17 16 15 16 18 19 19 20 21 19 18 18 17 15 16 16 16 16 14 11 9 8 7 7 6 3 0 0 0 0 0 0 0 0 0 0 0
31 31 31 29 26 23 22 22 21 22 21 20 20 21 22 21 21 20 17 15 15 18 18 17 15 13 12 10 8 6 4 2 1 0 0 0 0 0 0 0 0 0 0
38 37 35 33 31 29 28 28 27 26 24 22 21 22 24 24 24 24 20 17 17 19 19 18 16 16 15 13 10 7 4 2 2 1 0 0 0 0 0 0 0 0 0
40 39 37 35 34 33 32 31 29 27 25 23 23 23 25 26 26 25 21 19 20 20 19 18 17 16 16 14 11 8 4 2 2 1 0 0 0 0 0 0 0 0 0
40 40 38 37 37 38 37 34 30 27 27 27 26 26 26 25 25 23 20 19 20 19 18 18 17 15 15 14 12 8 4 1 1 0 0 0 0 0 0 0 0 0 0
42 43 42 41 41 38 35 33 30 29 30 30 29 27 25 23 21 19 18 18 19 18 18 18 17 16 15 15 12 9 5 2 1 0 0 0 0 0 0 0 0 0 0
45 46 46 45 42 34 26 22 23 26 30 31 29 26 23 20 18 17 16 16 15 15 15 17 18 17 16 16 14 11 8 5 3 2 1 0 0 0 0 0 0 0 0
48 48 48 47 42 32 19 11 10 17 24 29 29 26 22 20 19 17 16 15 13 12 12 15 16 17 16 17 16 13 10 9 7 4 1 0 0 0 0 0 0 0 0
51 51 49 47 42 33 21 11 7 11 20 27 29 27 24 21 18 16 15 14 13 12 12 14 16 16 14 14 15 14 12 10 9 6 2 1 0 0 0 0 0 0 0
50 51 49 45 41 33 24 14 9 12 19 24 27 26 23 18 15 14 13 14 14 13 13 14 14 13 11 9 10 11 11 11 9 6 3 1 0 0 0 0 0 0 0
48 48 47 44 39 33 24 14 9 14 20 23 26 25 20 15 13 12 12 12 13 13 13 14 13 10 8 6 6 8 11 11 9 6 3 2 1 0 0 0 0 0 0

GEFSMA_con_prob3kmehi_270.txt.gz
EHI
0 0 0 0 0 0 0 0 0 0 0 0 0 0 0 0 0 0 2 8 16 21 21 18 15 12 11 11 10 9 9 8 6 5 4 3 1 1 1 1 0 0 0
0 0 0 0 0 0 0 0 0 0 0 0 0 0 0 0 0 0 1 5 12 19 20 19 16 14 13 13 11 8 7 7 6 5 4 3 2 1 1 1 0 0 0
0 0 0 0 0 0 0 0 0 0 0 0 0 0 0 0 0 0 0 1 5 11 16 18 18 17 17 16 13 8 7 7 7 6 5 3 3 2 1 1 0 0 0
0 0 0 0 0 0 0 0 0 0 0 0 0 0 0 0 0 0 0 1 2 4 8 13 17 19 18 18 15 10 8 9 9 8 6 4 3 2 1 0 0 0 0
0 0 0 0 0 0 0 0 0 0 0 1 1 0 0 0 0 0 0 1 2 2 3 6 12 15 17 17 15 13 12 10 10 9 7 4 2 1 0 0 0 0 0
0 0 0 0 0 1 1 0 0 0 0 1 1 0 0 0 0 0 0 1 2 2 2 3 5 9 12 15 15 14 14 11 9 9 7 4 2 1 0 0 0 0 0
1 1 0 0 1 2 2 1 0 0 0 1 1 0 0 0 0 0 0 0 1 1 1 2 2 3 6 10 12 13 14 11 8 7 6 4 3 2 1 0 0 0 0
3 2 1 1 2 3 3 1 0 0 0 0 0 0 0 0 0 0 0 0 0 0 0 1 1 1 3 4 5 9 13 11 7 5 4 3 2 2 1 1 0 0 0
4 3 3 3 3 4 4 3 2 1 1 0 0 0 0 0 1 1 0 0 0 0 0 0 1 2 2 1 2 5 8 9 8 6 5 4 2 1 2 1 0 0 0
5 4 3 3 3 4 4 4 4 4 3 2 1 0 0 0 1 1 0 0 0 0 0 0 1 2 2 1 2 3 4 6 9 9 7 6 4 2 2 1 0 0 0
6 4 3 3 4 4 5 5 4 4 4 3 2 1 1 1 1 1 0 0 0 0 0 0 0 1 1 1 1 2 3 4 6 7 7 7 5 3 2 1 0 0 0
5 4 3 4 4 5 5 5 4 3 3 3 3 3 4 3 1 0 0 0 0 0 0 0 0 0 0 0 0 1 2 3 3 3 3 4 4 3 2 1 0 0 0
5 5 4 4 3 3 3 4 4 4 3 3 3 3 4 4 2 1 1 1 1 0 0 0 0 0 0 0 0 0 1 1 1 0 0 1 1 1 1 0 0 0 0
7 6 5 4 3 2 2 3 4 4 4 4 3 3 4 3 2 2 2 2 2 1 0 0 0 0 0 0 0 0 0 0 0 0 0 0 0 0 0 0 0 0 0
8 7 5 5 4 3 2 3 4 4 4 3 3 3 3 3 2 3 3 3 3 3 2 1 1 1 0 0 0 0 0 0 0 0 0 0 0 0 0 0 0 0 0
9 9 7 6 5 4 2 1 2 3 3 3 3 3 4 3 3 4 4 4 4 6 5 2 2 2 1 1 0 0 0 0 0 0 0 0 0 1 0 0 0 0 0
13 12 11 8 6 4 3 2 3 3 3 3 3 4 5 5 4 5 5 5 7 9 8 6 4 4 3 3 1 0 0 1 0 0 0 0 0 0 0 0 0 0 0
16 16 14 11 8 6 6 6 5 4 3 3 4 6 7 6 6 6 7 8 10 11 11 9 7 6 6 5 2 0 0 0 0 0 0 0 0 0 0 0 0 0 0
19 19 16 13 11 10 10 9 7 4 4 4 4 6 8 9 9 9 10 11 12 12 12 11 8 7 6 4 2 0 0 0 0 0 0 0 0 0 0 0 0 0 0
21 20 18 15 14 13 13 12 9 6 6 5 5 6 9 11 12 13 13 13 13 12 11 9 8 6 5 3 2 1 1 0 0 0 0 0 0 0 0 0 0 0 0
22 20 19 18 17 15 14 13 10 8 8 7 5 5 7 10 12 13 12 13 12 11 10 8 7 6 4 3 3 2 2 1 1 0 0 0 0 0 0 0 0 0 0
21 20 19 19 18 16 13 11 9 8 8 6 4 3 4 6 9 10 8 8 9 10 10 9 8 7 6 4 3 3 3 3 2 1 0 0 0 0 0 0 0 0 0
19 18 17 17 17 16 13 10 8 8 7 5 4 4 4 5 7 8 6 5 6 8 10 10 9 9 8 6 4 3 3 3 2 1 0 0 0 0 0 0 0 0 0
17 15 14 15 17 16 14 9 8 8 8 6 4 6 8 9 9 9 8 6 6 8 9 9 9 9 9 7 5 4 3 3 3 1 0 0 0 0 0 0 0 0 0
16 15 14 14 15 16 14 9 7 9 9 7 6 6 9 10 10 10 9 8 8 9 9 8 7 7 6 6 6 5 5 5 5 3 1 0 0 0 0 0 0 0 0
16 16 15 14 15 15 13 9 7 10 10 8 6 6 8 8 8 8 9 9 9 9 9 8 6 5 4 3 4 6 8 8 7 5 2 1 0 0 0 0 0 0 0

GEFSMA_con_prob3kmehi_276.txt.gz
EHI
0 0 0 0 0 0 0 0 0 0 0 0 0 0 0 0 0 0 0 1 3 6 8 9 9 8 8 7 6 5 6 7 7 5 3 2 1 1 1 1 0 0 0
0 0 0 0 0 0 0 0 0 0 0 0 0 0 0 0 0 0 0 1 2 4 7 9 10 10 9 7 5 4 5 6 7 6 4 3 2 2 1 1 1 0 0
0 0 0 0 0 0 0 0 0 0 0 0 0 0 0 0 0 0 0 0 1 2 4 7 9 11 10 7 5 4 5 6 7 7 6 5 4 3 3 2 1 0 0
0 0 0 0 0 0 0 0 0 0 0 0 0 0 0 0 0 0 0 0 0 0 1 3 6 9 10 9 8 7 7 7 7 7 7 7 5 5 4 3 1 0 0
0 0 0 0 0 0 0 0 0 0 0 0 0 0 0 0 0 0 0 0 0 0 0 0 2 5 8 10 10 10 9 8 7 6 6 7 6 5 4 2 1 0 0
0 0 0 0 0 0 0 0 0 0 0 0 0 0 0 0 0 0 0 0 0 0 0 0 0 1 3 6 8 9 10 9 8 6 6 8 7 5 3 1 0 0 0
0 0 0 0 0 0 0 0 0 0 0 0 0 0 0 0 0 0 0 0 0 0 0 0 0 0 0 2 4 6 7 8 8 7 6 8 7 4 1 0 0 0 0
0 0 0 0 0 0 0 0 0 0 0 0 0 0 0 0 0 0 0 0 0 0 0 0 0 0 0 0 1 2 3 4 5 5 6 6 5 2 0 0 1 0 0
0 0 0 0 0 0 0 0 0 0 0 0 0 0 0 0 0 0 0 0 0 0 0 0 0 0 0 0 0 0 1 2 3 3 4 4 3 1 0 0 0 0 0
0 0 0 0 0 0 0 0 0 1 1 1 1 1 1 0 0 0 0 1 1 1 1 0 0 0 0 0 0 0 1 2 3 2 2 2 2 1 0 0 0 0 0
0 0 0 0 0 0 0 0 1 2 2 2 2 2 2 1 1 1 2 3 3 2 1 0 0 0 0 0 0 0 1 2 2 1 0 1 1 0 0 0 0 0 0
0 0 0 0 0 0 0 0 1 3 3 2 2 2 2 3 3 3 4 4 3 3 1 0 0 0 0 0 0 0 0 1 1 0 0 0 0 0 1 0 0 0 0
0 0 0 0 0 0 0 0 1 2 2 1 1 1 1 2 4 5 5 4 3 3 2 1 0 0 0 0 0 0 0 0 0 0 0 0 0 0 0 0 0 0 0
0 1 1 0 0 0 0 0 1 1 1 0 0 0 0 0 2 4 5 5 3 3 3 2 1 1 0 0 0 0 0 0 0 0 0 0 0 0 0 0 0 0 0
2 2 2 1 0 0 0 0 0 0 0 0 0 0 0 0 1 2 4 4 4 4 5 4 4 3 1 0 0 0 0 0 0 0 0 0 0 0 0 0 0 0 0
4 4 3 2 1 0 0 0 0 0 0 0 0 0 0 0 1 3 4 5 6 7 6 7 7 5 3 1 1 0 0 0 0 0 0 0 0 0 0 0 0 0 0
5 4 4 3 2 1 0 1 1 0 0 0 0 0 0 0 2 4 5 5 7 7 6 6 6 6 5 3 2 1 0 0 0 0 0 0 0 0 0 0 0 0 0
5 5 5 4 3 2 2 2 2 1 1 1 1 1 0 1 2 4 4 4 4 5 5 4 5 6 6 4 3 2 0 0 0 0 0 0 0 0 0 0 0 0 0
5 6 6 5 4 4 4 4 4 3 2 2 2 2 2 2 3 3 3 3 3 3 4 4 5 6 6 4 3 2 1 0 0 0 0 0 0 0 0 0 0 0 0
6 6 5 3 3 5 6 5 5 4 4 3 3 3 3 3 4 4 4 5 5 5 5 5 6 7 6 4 3 3 2 1 1 0 0 0 0 0 0 0 0 0 0
5 5 4 2 2 3 5 5 6 6 5 4 4 4 4 4 4 3 4 5 6 7 6 6 6 7 6 5 4 3 3 3 2 1 0 0 0 0 0 0 0 0 0
4 5 5 3 2 2 3 4 6 6 5 4 5 6 6 6 4 3 2 3 4 6 7 7 7 7 8 8 6 4 4 4 3 2 1 1 1 0 0 0 0 0 0
6 7 6 4 2 2 2 3 4 5 5 5 5 6 7 6 5 3 3 2 2 4 7 8 8 8 9 10 8 7 6 4 2 2 2 2 2 1 1 1 0 0 0
9 9 7 4 3 3 3 2 3 4 6 6 6 7 7 7 5 5 5 6 5 6 7 8 8 8 8 8 8 8 7 4 3 3 3 3 4 3 2 2 1 0 0
10 9 7 5 4 4 4 3 3 4 6 6 6 6 6 6 5 4 6 9 9 7 6 6 6 6 5 4 5 6 6 6 6 7 5 3 3 3 3 2 1 0 0
9 9 7 6 6 5 5 5 4 5 6 6 6 5 5 5 4 2 6 11 11 7 6 5 5 4 3 1 2 4 6 8 10 9 6 3 1 1 2 2 1 0 0

GEFSMA_con_prob3kmehi_282.txt.gz
EHI
0 0 0 0 0 0 0 1 1 1 2 4 4 4 4 4 4 3 2 3 3 1 0 2 4 5 6 7 7 6 5 5 2 1 0 0 0 0 0 0 0 0 0
0 0 0 0 0 0 1 2 2 3 3 4 4 5 4 4 4 3 2 3 2 1 0 1 4 5 6 6 6 6 6 6 4 2 1 1 1 0 0 0 0 0 0
0 0 0 0 0 0 1 2 3 3 4 3 2 3 4 4 4 3 3 4 3 1 1 1 2 3 3 4 5 5 6 8 8 6 5 4 3 2 1 0 0 0 0
0 1 1 0 0 0 1 2 3 3 2 1 0 1 2 3 3 3 3 4 3 2 1 2 1 1 1 3 4 4 5 7 9 9 8 6 5 4 2 1 1 0 0
1 2 2 1 0 0 0 2 4 3 2 1 0 0 1 1 2 3 3 4 3 2 1 2 2 1 1 2 4 4 4 5 7 8 7 6 5 4 3 3 2 1 1
2 2 2 1 0 0 0 1 4 4 3 3 1 0 0 0 1 2 3 3 3 1 1 3 4 3 2 2 4 4 3 3 5 6 6 5 4 4 4 3 3 3 1
4 4 3 2 1 1 1 2 3 4 3 3 1 0 0 0 1 1 2 3 2 1 1 3 5 3 2 3 3 3 3 3 5 6 6 6 5 5 4 3 2 2 1
7 7 6 4 2 2 2 2 2 2 2 1 1 0 0 0 1 1 1 2 2 2 2 3 4 4 3 3 3 3 3 3 5 6 7 6 4 4 4 2 0 0 0
9 10 9 7 4 2 2 1 1 1 0 0 0 0 0 0 1 1 1 1 1 2 2 2 3 4 4 3 2 1 2 3 4 4 5 4 3 3 3 1 0 0 0
9 9 9 8 6 4 3 2 1 1 0 0 0 0 0 1 1 1 1 1 0 1 2 2 2 3 3 4 2 1 1 1 2 3 4 4 4 3 3 1 0 0 0
8 8 9 8 7 6 5 4 4 3 2 2 1 1 1 3 2 2 2 2 1 1 2 3 3 2 4 5 4 1 0 0 1 2 4 5 4 3 3 1 0 0 0
8 8 9 8 8 7 7 7 7 5 5 6 5 3 2 3 3 3 3 3 3 2 2 3 4 4 5 6 4 2 0 0 0 1 2 4 3 2 1 0 0 0 0
7 9 10 9 8 7 8 9 9 7 8 9 8 7 5 3 3 5 5 4 3 3 3 3 4 4 5 6 5 3 1 1 0 0 1 2 2 1 0 0 0 0 0
6 9 12 11 10 8 9 10 10 9 9 9 9 10 9 6 6 8 7 5 3 3 2 2 2 4 5 7 6 4 3 3 1 0 0 1 1 0 0 0 0 0 0
7 10 13 14 12 10 10 11 11 11 11 10 10 10 9 8 9 11 9 6 4 4 3 3 4 5 7 8 7 6 5 4 2 0 0 0 0 0 0 0 0 0 0
12 13 15 16 13 12 12 13 13 13 13 13 13 13 12 11 11 11 10 8 7 6 6 6 8 9 9 9 9 9 8 6 4 2 0 0 0 0 0 0 0 0 0
15 16 17 16 14 13 13 13 12 13 14 16 16 17 17 16 14 12 11 10 10 9 9 9 9 9 10 11 10 10 9 9 7 3 1 0 0 0 0 0 0 0 0
15 15 14 13 12 13 13 14 13 12 13 14 15 16 18 19 18 16 14 13 12 12 11 11 10 10 11 11 10 11 11 11 8 4 1 0 0 0 0 0 0 0 0
16 14 12 10 10 12 13 15 15 13 12 11 11 13 16 18 18 18 18 17 15 14 14 14 13 13 11 10 10 11 13 14 10 5 2 0 0 0 0 0 0 0 0
19 17 15 12 10 10 12 14 16 15 13 12 11 13 15 16 16 17 18 18 17 17 18 17 16 14 11 10 11 12 13 14 12 9 6 3 2 1 1 0 0 0 0
20 20 19 15 11 9 8 10 13 14 13 13 13 13 13 13 13 13 13 14 16 19 20 19 17 14 11 10 11 12 13 13 13 12 10 7 4 4 3 2 1 0 0
22 22 23 20 14 8 5 5 8 9 10 11 12 12 11 10 10 9 8 8 10 13 16 18 18 16 15 13 14 14 14 13 12 12 11 8 6 5 6 5 4 1 0
25 26 26 24 18 10 5 3 3 4 6 8 9 10 10 9 9 9 8 8 9 10 13 16 17 17 18 18 17 16 14 13 12 11 10 8 6 6 5 5 3 1 0
29 30 28 26 20 12 5 2 1 3 6 7 8 9 10 10 10 10 11 13 15 15 14 14 13 13 14 15 16 16 15 13 12 10 9 7 6 6 4 3 2 0 0
31 29 26 23 19 12 5 2 1 3 6 9 10 10 10 10 11 10 12 18 21 20 16 12 10 10 10 8 10 14 15 13 10 8 8 7 6 5 4 3 3 2 1
28 26 22 20 18 12 5 1 1 3 7 10 13 13 10 9 10 9 13 19 22 22 18 13 11 10 8 5 6 13 15 12 8 6 7 7 5 4 3 3 5 4 3

GEFSMA_con_prob3kmehi_288.txt.gz
EHI
7 7 8 9 8 8 9 11 12 12 11 11 9 7 7 6 6 8 12 19 22 19 14 12 10 7 6 7 8 9 9 8 7 7 4 1 0 0 0 1 0 0 0
8 8 10 10 10 9 10 12 14 14 15 14 11 8 7 7 9 10 13 17 19 18 17 14 11 9 8 8 8 8 8 8 8 7 4 1 0 0 1 1 0 0 0
9 9 10 12 13 13 15 15 15 15 16 15 14 11 9 9 12 13 14 15 16 18 20 19 16 15 12 9 8 7 7 8 9 9 7 4 2 2 2 1 0 0 0
10 10 12 14 17 19 18 17 15 14 14 14 13 12 12 13 14 13 13 13 15 18 21 22 23 21 17 13 10 9 8 9 10 11 11 9 7 5 4 2 0 0 0
10 13 15 17 19 19 17 15 15 15 15 12 9 9 11 13 14 13 12 11 13 17 20 21 22 23 22 20 17 14 11 11 11 12 13 13 12 10 6 3 1 0 0
11 15 19 19 18 16 12 11 14 16 16 11 6 5 7 10 13 14 13 11 12 13 16 18 20 22 24 24 21 17 14 12 12 12 12 12 12 11 8 4 1 0 0
11 15 18 19 18 15 11 10 12 14 12 8 5 4 5 9 14 15 15 15 13 11 12 16 20 23 24 23 20 16 13 12 11 10 9 9 10 10 8 6 3 1 0
11 12 14 17 18 17 14 13 14 14 11 6 5 6 6 9 12 13 16 19 16 14 13 15 21 25 24 20 17 15 13 11 10 8 7 7 7 7 7 7 5 2 1
14 13 14 18 20 19 18 17 17 15 11 8 8 8 8 9 10 13 15 17 19 19 17 16 18 22 22 20 17 14 13 12 9 8 7 7 7 6 6 6 5 3 3
22 20 20 22 23 22 20 19 18 16 14 11 11 12 12 11 12 15 15 15 19 21 18 16 16 18 22 23 19 15 12 11 9 8 8 8 7 6 6 6 4 3 3
27 25 26 28 27 24 21 19 19 18 17 15 13 14 14 14 14 16 15 15 18 20 19 18 18 19 23 26 24 17 12 10 7 6 6 6 6 6 6 6 5 4 3
28 28 30 32 32 27 22 20 20 21 21 19 15 14 15 14 14 14 13 13 15 18 21 22 22 21 23 27 27 21 13 8 5 4 4 4 4 4 5 6 6 4 4
29 31 32 34 35 28 22 21 22 22 22 22 18 15 15 15 14 13 12 12 12 15 20 22 20 20 22 24 23 19 12 7 3 2 2 2 3 3 4 4 5 4 4
28 31 35 36 35 28 22 22 23 22 22 22 19 16 15 15 15 13 12 13 13 15 18 17 15 16 19 20 17 14 11 6 2 1 1 1 1 2 2 2 3 3 3
23 29 35 37 36 30 23 21 22 21 20 19 18 16 16 15 14 12 12 14 16 16 16 14 13 14 16 15 13 12 11 8 4 1 0 0 0 1 1 1 1 1 1
25 30 34 35 35 31 24 20 20 19 17 16 15 16 15 15 14 13 14 17 19 18 16 14 15 16 15 13 12 13 12 10 7 4 1 0 0 0 0 0 0 0 0
35 36 36 34 30 27 24 21 20 18 16 13 13 14 14 14 14 15 16 17 19 19 17 16 16 17 19 17 14 14 13 12 11 8 3 0 0 0 0 0 0 0 0
40 39 37 31 25 22 22 22 19 16 13 11 11 12 13 12 14 16 16 16 16 17 17 16 17 18 20 20 17 15 14 13 14 12 7 2 0 0 0 0 0 0 0
37 36 34 28 22 19 20 21 18 15 13 11 9 9 11 13 15 17 17 16 15 14 15 16 16 17 19 19 17 15 14 13 13 13 9 5 2 1 0 0 0 0 0
36 35 33 27 21 18 19 19 19 18 17 14 9 7 9 13 15 17 18 16 14 13 13 14 14 15 18 19 18 15 13 11 11 12 11 8 6 3 2 1 0 0 0
38 36 32 27 22 17 16 16 17 19 20 17 12 9 8 11 13 14 14 13 11 11 12 12 12 15 18 20 19 15 11 9 10 11 12 11 9 7 5 3 1 0 0
39 35 31 28 24 18 11 9 12 16 18 18 16 12 9 9 10 10 10 8 7 8 10 12 13 16 19 20 20 17 13 11 11 12 13 12 11 9 9 6 2 0 0
40 37 33 30 27 19 9 5 7 11 13 15 15 13 10 9 10 11 10 9 8 8 9 11 14 16 17 19 19 18 15 13 13 14 14 13 12 10 9 6 3 0 0
44 42 37 32 27 20 10 3 4 7 9 11 11 10 9 9 9 10 12 13 13 12 10 10 12 13 13 13 15 16 15 14 13 13 13 12 11 9 7 4 1 0 0
47 45 39 32 26 20 11 4 3 5 8 8 7 6 7 7 7 8 11 14 15 15 13 10 9 10 9 7 9 13 14 13 12 11 11 10 9 9 7 4 1 1 1
49 46 38 30 25 20 12 5 4 6 8 7 5 4 5 5 6 7 10 12 14 15 15 12 9 9 8 5 5 11 14 13 12 11 10 9 9 9 8 6 3 2 2

GEFSMA_con_prob3kmehi_294.txt.gz
EHI
0 0 0 0 0 0 0 1 1 1 0 0 1 3 4 4 3 3 5 9 14 14 11 8 7 8 7 7 6 6 7 9 8 8 7 5 3 1 1 1 1 0 0
0 0 0 0 0 0 0 0 0 0 0 0 1 3 3 3 4 5 6 7 11 15 14 11 11 10 8 7 6 6 7 8 7 7 7 6 3 1 1 1 0 0 0
0 0 0 0 0 0 0 0 0 0 0 0 1 1 2 2 3 5 6 5 6 12 16 17 16 13 11 10 10 8 8 8 8 7 6 6 4 2 2 1 1 0 0
0 0 0 0 0 0 0 0 0 0 0 0 0 0 0 1 2 3 4 3 3 6 11 17 19 18 16 16 15 12 9 10 10 7 6 5 5 4 2 2 1 0 0
0 0 0 0 0 0 0 0 0 0 0 0 0 0 0 0 1 2 3 3 3 3 6 11 16 18 20 21 19 14 12 12 11 9 6 5 5 5 3 1 1 0 0
0 0 0 0 0 0 0 0 0 0 0 0 0 0 0 0 0 1 2 2 3 3 4 6 9 13 17 20 18 15 13 12 11 10 8 7 6 6 4 2 1 1 1
1 2 1 2 2 1 0 0 0 0 0 0 0 0 0 0 0 0 1 1 1 2 3 3 3 5 8 11 13 13 13 13 11 10 9 9 7 7 5 3 2 2 2
3 3 3 4 4 2 0 0 0 0 0 0 0 0 0 0 0 0 0 0 0 1 2 2 1 1 1 3 5 9 13 14 13 11 10 10 9 7 6 4 3 3 3
4 4 4 5 6 4 1 0 0 1 1 1 1 1 1 0 0 0 0 0 1 2 2 2 2 1 0 0 3 6 11 13 14 13 12 11 10 8 6 5 4 3 3
3 3 4 6 6 5 2 0 1 3 4 4 3 3 3 2 2 1 1 1 2 3 3 3 3 2 1 2 3 5 8 11 12 13 12 12 10 9 7 6 5 4 4
3 3 5 7 7 6 4 3 3 4 5 6 6 5 5 5 5 4 4 4 4 4 4 3 3 3 3 3 4 5 7 9 10 10 11 11 10 8 7 6 5 5 5
3 4 7 9 9 8 7 7 6 5 6 7 7 6 6 6 6 6 5 4 4 4 4 2 2 3 3 4 4 5 7 7 6 6 7 8 8 7 6 5 4 4 4
4 5 8 10 11 10 9 9 9 8 7 8 7 5 4 4 5 4 3 3 2 2 2 2 1 2 3 4 6 7 7 5 3 2 2 3 5 5 4 4 3 3 3
4 4 5 8 10 11 11 10 10 9 8 7 5 2 1 1 2 1 1 1 1 0 1 1 1 1 2 4 5 5 4 3 1 0 0 0 1 1 1 2 2 2 2
5 4 3 5 7 9 10 9 8 8 6 5 3 1 0 0 1 1 1 1 0 0 0 1 1 1 2 3 3 2 2 2 1 0 0 0 0 0 0 0 0 1 2
5 3 2 4 6 6 5 5 5 5 4 3 3 2 1 1 2 2 2 2 1 1 1 0 0 0 1 3 2 0 1 2 2 1 0 0 0 0 0 0 0 0 1
4 2 2 4 6 5 2 1 3 4 3 2 3 3 2 2 3 4 3 2 3 3 3 1 1 1 1 1 1 0 1 2 3 2 0 0 0 0 0 0 0 0 0
3 2 3 5 6 4 1 1 3 5 3 2 3 3 3 2 3 4 3 3 4 5 5 4 3 3 2 1 0 0 1 3 4 3 1 0 0 0 0 0 0 0 0
5 5 6 7 7 4 2 0 2 4 4 3 3 3 2 2 2 3 3 4 5 5 5 5 4 4 4 1 0 0 1 3 5 5 3 0 0 0 0 0 0 0 0
9 9 8 8 6 5 2 0 1 2 3 3 3 2 1 1 1 2 2 4 4 4 4 4 4 4 3 2 1 1 1 3 5 6 4 1 0 0 0 0 0 0 0
12 11 11 9 6 4 3 1 1 2 3 3 2 1 1 2 3 3 3 4 4 4 4 3 3 3 2 3 3 2 2 3 4 4 3 2 2 2 1 1 0 0 0
14 14 14 12 9 5 2 1 1 1 3 3 2 2 3 3 4 4 4 4 4 4 4 4 4 4 4 4 4 3 3 4 4 3 2 2 4 4 3 2 0 0 0
19 17 17 16 13 7 2 0 0 1 2 3 2 3 3 3 4 4 4 4 3 3 4 5 5 6 7 6 5 4 3 4 3 2 2 3 3 4 3 1 0 0 0
22 19 16 16 13 8 3 0 0 0 1 2 1 1 1 2 2 3 3 3 3 3 3 4 4 5 6 5 4 4 4 3 1 1 1 2 2 2 2 1 0 0 0
23 19 14 13 11 7 4 1 0 0 0 0 0 0 0 0 1 1 3 3 3 3 3 3 3 3 3 2 2 3 4 2 0 0 0 1 1 1 1 0 0 0 0
23 19 14 12 10 7 4 2 1 0 0 0 0 0 0 0 0 1 2 3 3 3 3 3 3 2 1 0 1 2 3 1 0 0 0 1 1 1 0 0 0 0 0

GEFSMA_con_prob3kmehi_300.txt.gz
EHI
0 0 0 0 0 0 1 0 0 0 0 1 2 1 0 0 0 1 3 5 8 8 5 5 6 6 6 6 7 8 8 7 6 6 6 6 6 6 6 5 4 4 3
0 0 0 0 0 1 1 1 0 0 0 1 2 2 1 0 0 1 3 5 7 7 6 6 7 7 6 7 7 8 8 8 7 6 6 6 6 6 6 6 5 4 4
0 0 0 0 1 1 1 1 0 0 1 1 1 1 2 1 1 1 3 5 6 6 6 8 10 10 9 8 9 10 11 10 8 7 6 6 7 7 7 7 6 6 5
0 0 0 0 0 0 0 0 0 0 0 0 0 1 2 2 1 1 2 4 5 5 5 8 12 13 13 12 13 14 14 12 11 9 8 7 8 9 8 6 6 5 5
1 0 0 0 0 0 0 0 0 0 0 0 0 0 1 2 1 1 2 3 4 4 4 6 9 12 14 16 16 15 15 15 13 12 10 9 9 10 8 6 5 5 4
1 0 0 0 0 0 0 0 0 0 0 0 0 0 0 0 1 1 2 3 3 3 3 4 5 6 10 14 14 13 13 14 15 14 12 11 10 10 9 8 7 6 6
1 0 0 0 0 0 0 0 0 0 0 0 0 0 0 0 0 1 2 3 3 3 3 3 3 3 5 7 9 9 10 12 15 15 13 12 10 10 10 9 9 7 7
0 0 1 2 2 1 1 1 1 0 0 0 1 2 1 1 0 0 1 2 3 3 3 3 3 3 3 4 4 5 7 10 13 13 12 11 10 10 10 10 9 9 8
1 2 3 4 4 3 2 2 2 1 0 1 2 3 3 2 1 1 1 1 2 3 3 3 3 3 3 3 3 3 4 7 10 11 10 10 10 9 9 10 10 9 9
2 2 3 3 3 2 2 1 2 1 1 2 3 3 3 3 3 2 2 1 1 3 3 3 4 4 4 3 3 3 3 4 6 7 8 8 8 8 9 9 10 10 10
2 2 2 1 1 1 1 1 1 2 2 3 3 3 3 3 3 3 3 1 1 3 3 4 5 5 5 4 3 3 3 3 3 4 4 5 6 7 8 8 9 9 9
2 2 2 2 1 2 2 1 0 1 2 3 3 3 3 3 3 3 3 2 2 2 3 3 4 6 5 4 3 3 2 1 1 1 1 2 4 5 6 7 7 7 8
3 3 3 3 3 3 4 2 0 0 1 3 3 3 3 3 3 3 3 2 1 1 1 2 3 4 4 3 2 1 1 0 0 0 0 1 2 3 4 5 5 6 6
3 3 3 3 3 4 4 2 0 0 2 3 3 3 2 2 2 2 1 1 1 1 1 1 1 1 1 1 1 1 1 1 0 0 0 1 1 1 1 3 4 4 4
3 3 3 3 3 2 2 1 1 1 3 4 3 1 1 1 1 1 0 1 1 1 0 0 0 0 0 0 0 1 1 1 0 0 0 0 0 0 0 1 2 2 1
3 3 3 3 3 1 1 1 1 2 3 4 3 1 1 0 0 0 0 1 2 2 1 1 0 1 1 1 0 0 0 0 0 0 0 0 0 0 0 0 0 0 0
4 4 4 4 3 1 0 0 1 1 2 3 3 3 2 1 0 0 0 1 2 3 3 2 1 1 2 1 0 0 0 0 1 1 0 0 0 0 0 0 0 0 0
6 6 6 5 4 2 1 1 1 1 1 2 2 2 2 1 0 0 0 0 1 3 4 4 3 3 3 2 1 0 0 1 1 1 1 0 0 0 0 0 0 0 0
7 7 7 6 6 5 5 4 2 1 1 1 1 1 1 2 1 0 0 0 1 3 5 5 5 5 4 3 2 1 2 2 1 1 1 0 0 0 0 0 0 0 0
6 7 8 7 7 7 8 6 4 2 1 1 0 0 1 2 1 0 0 0 1 4 5 6 5 4 3 3 4 4 4 3 1 1 1 0 0 1 1 0 0 0 0
5 6 6 6 6 7 7 6 4 3 1 0 0 0 0 1 1 0 0 0 2 4 5 4 4 3 3 4 5 6 6 3 1 1 0 0 1 1 1 1 0 0 0
5 5 5 5 6 6 6 4 3 2 1 0 0 0 0 1 1 0 0 0 1 3 3 3 3 3 3 4 5 6 6 5 4 3 1 1 2 2 2 1 0 0 0
8 8 7 6 6 6 5 4 2 1 1 0 0 0 0 0 1 1 1 0 1 1 2 3 3 3 3 4 5 6 7 7 7 6 2 1 2 2 2 1 0 0 0
12 12 10 7 7 6 4 2 1 0 0 0 0 0 0 0 1 2 2 1 1 2 2 2 2 2 2 3 4 5 6 7 7 5 3 2 3 2 1 1 0 0 0
14 13 10 9 8 5 2 1 0 0 0 0 0 1 1 1 0 1 1 2 2 2 2 1 1 1 1 1 2 3 4 5 5 4 2 2 2 1 1 1 1 0 0
16 13 10 9 8 5 1 0 0 0 0 0 0 1 2 1 0 0 1 2 2 2 2 2 1 0 0 0 1 3 4 5 5 3 1 1 1 0 1 2 1 0 0